TimeHST,TemperatureF,Dew PointF,Humidity,Sea Level PressureIn,VisibilityMPH,Wind Direction,Wind SpeedMPH,Gust SpeedMPH,PrecipitationIn,Events,Conditions,WindDirDegrees,DateUTC
12:57 AM,69.8,68.0,94,30.02,7.0,Calm,Calm,-,N/A,,Mostly Cloudy,0,2013-03-18 10:57:00
1:57 AM,69.8,68.0,94,30.01,7.0,Calm,Calm,-,N/A,,Mostly Cloudy,0,2013-03-18 11:57:00
2:57 AM,69.8,61.0,73,29.99,7.0,Calm,Calm,-,N/A,,Mostly Cloudy,0,2013-03-18 12:57:00
3:57 AM,69.8,63.0,79,29.98,7.0,Calm,Calm,-,N/A,,Mostly Cloudy,0,2013-03-18 13:57:00
4:57 AM,69.8,64.0,82,29.99,7.0,Calm,Calm,-,N/A,,Mostly Cloudy,0,2013-03-18 14:57:00
5:57 AM,69.8,62.1,76,30.00,7.0,Calm,Calm,-,N/A,,Mostly Cloudy,0,2013-03-18 15:57:00
6:57 AM,69.8,66.0,88,30.01,7.0,Calm,Calm,-,N/A,,Mostly Cloudy,0,2013-03-18 16:57:00
7:57 AM,71.6,60.1,67,30.03,7.0,Calm,Calm,-,N/A,,Scattered Clouds,0,2013-03-18 17:57:00
8:57 AM,70.5,63.0,77,30.04,7.0,Calm,Calm,-,N/A,,Scattered Clouds,0,2013-03-18 18:57:00
9:57 AM,73.6,61.0,65,30.04,7.0,NNE,3.5,-,N/A,,Scattered Clouds,30,2013-03-18 19:57:00
10:57 AM,74.7,59.0,58,30.03,10.0,NNE,5.8,-,N/A,,Overcast,30,2013-03-18 20:57:00
11:57 AM,72.9,57.9,59,30.01,7.0,NNE,4.6,-,N/A,,Mostly Cloudy,30,2013-03-18 21:57:00
12:57 PM,76.1,57.0,51,29.99,7.0,North,6.9,-,N/A,,Mostly Cloudy,10,2013-03-18 22:57:00
1:57 PM,76.1,57.9,53,29.96,7.0,NNE,5.8,-,N/A,,Mostly Cloudy,20,2013-03-18 23:57:00
2:57 PM,76.1,57.0,51,29.96,7.0,NNE,6.9,-,N/A,,Mostly Cloudy,20,2013-03-19 00:57:00
3:57 PM,76.3,57.0,51,29.94,7.0,NNE,3.5,-,N/A,,Mostly Cloudy,20,2013-03-19 01:57:00
4:57 PM,72.1,57.9,61,29.95,7.0,Calm,Calm,-,N/A,,Mostly Cloudy,0,2013-03-19 02:57:00
5:57 PM,71.8,57.0,60,29.96,7.0,NE,3.5,-,N/A,,Mostly Cloudy,50,2013-03-19 03:57:00
6:57 PM,70.5,57.0,62,29.98,7.0,NE,4.6,-,N/A,,Overcast,50,2013-03-19 04:57:00
7:57 PM,70.5,57.9,64,30.00,7.0,Calm,Calm,-,N/A,,Overcast,0,2013-03-19 05:57:00
8:57 PM,69.6,57.0,64,30.01,7.0,ESE,3.5,-,N/A,,Mostly Cloudy,110,2013-03-19 06:57:00
9:57 PM,69.6,57.9,66,30.02,7.0,Calm,Calm,-,N/A,,Overcast,0,2013-03-19 07:57:00
10:57 PM,68.9,60.1,73,30.02,7.0,Calm,Calm,-,N/A,,Mostly Cloudy,0,2013-03-19 08:57:00
11:57 PM,68.5,63.0,82,30.01,7.0,Calm,Calm,-,N/A,,Mostly Cloudy,0,2013-03-19 09:57:00